User: anonymous   Login
Location: Unspecified
(0.0000°N, 0.0000°E)
Time: 06:58:30
(UTC+00:00)
Language:

Sunsat (SO-35) - Orbit

View from above orbital plane
View from above orbital plane
View from above satellite
View from above satellite

Ground track
Ground track

The orbit data is extracted from the following two-line orbital elements,

1 25636U 99008C   17202.90554399 +.00000015 +00000-0 +11919-4 0  9995
2 25636 096.4732 084.0964 0144687 212.1908 147.0395 14.44616715969517
Epoch (UTC): 21 July 2017 21:43:59
Eccentricity: 0.0144687
inclination: 96.4732°
perigee height: 640 km
apogee height: 846 km
right ascension of ascending node: 84.0964°
argument of perigee: 212.1908°
revolutions per day: 14.44616715
mean anomaly at epoch: 147.0395°
orbit number at epoch: 96951

The dashed part of the orbit path shows where the satellite is in the earth's shadow,  

DLR